TimeCDT,TemperatureF,Dew PointF,Humidity,Sea Level PressureIn,VisibilityMPH,Wind Direction,Wind SpeedMPH,Gust SpeedMPH,PrecipitationIn,Events,Conditions,WindDirDegrees,DateUTC
12:51 AM,64.9,53.1,65,29.88,10.0,Calm,Calm,-,N/A,,Mostly Cloudy,0,2014-05-10 05:51:00
1:51 AM,62.1,51.1,67,29.88,10.0,NNW,3.5,-,N/A,,Mostly Cloudy,330,2014-05-10 06:51:00
2:51 AM,63.0,53.1,70,29.89,10.0,Calm,Calm,-,N/A,,Mostly Cloudy,0,2014-05-10 07:51:00
3:51 AM,60.1,50.0,69,29.89,10.0,Calm,Calm,-,N/A,,Mostly Cloudy,0,2014-05-10 08:51:00
4:51 AM,62.1,48.0,60,29.88,10.0,Calm,Calm,-,N/A,,Mostly Cloudy,0,2014-05-10 09:51:00
5:51 AM,59.0,48.9,69,29.89,10.0,NE,3.5,-,N/A,,Mostly Cloudy,40,2014-05-10 10:51:00
6:51 AM,61.0,48.9,64,29.91,10.0,NE,4.6,-,N/A,,Mostly Cloudy,50,2014-05-10 11:51:00
7:51 AM,64.9,48.9,56,29.93,10.0,East,8.1,-,N/A,,Scattered Clouds,80,2014-05-10 12:51:00
8:51 AM,69.1,48.9,49,29.95,10.0,ESE,12.7,-,N/A,,Scattered Clouds,120,2014-05-10 13:51:00
9:51 AM,71.6,48.2,43,29.98,10.0,ESE,10.4,-,N/A,,Mostly Cloudy,120,2014-05-10 14:51:00
10:51 AM,73.9,48.9,41,29.95,10.0,East,6.9,-,N/A,,Mostly Cloudy,100,2014-05-10 15:51:00
11:51 AM,75.9,48.0,37,29.94,10.0,ENE,8.1,-,N/A,,Scattered Clouds,70,2014-05-10 16:51:00
12:51 PM,79.0,50.0,36,29.92,10.0,SW,3.5,-,N/A,,Scattered Clouds,230,2014-05-10 17:51:00
1:51 PM,82.0,50.0,33,29.90,10.0,Calm,Calm,-,N/A,,Scattered Clouds,0,2014-05-10 18:51:00
2:51 PM,82.0,52.0,35,29.88,10.0,South,6.9,-,N/A,,Scattered Clouds,190,2014-05-10 19:51:00
3:51 PM,82.0,51.1,34,29.86,10.0,Variable,3.5,-,N/A,,Mostly Cloudy,0,2014-05-10 20:51:00
4:51 PM,82.9,50.0,32,29.84,10.0,SE,11.5,18.4,N/A,,Mostly Cloudy,130,2014-05-10 21:51:00
5:51 PM,82.9,50.0,32,29.82,10.0,SE,10.4,-,N/A,,Mostly Cloudy,140,2014-05-10 22:51:00
6:51 PM,81.0,53.1,38,29.81,10.0,SE,11.5,-,N/A,,Mostly Cloudy,130,2014-05-10 23:51:00
7:51 PM,80.1,55.0,42,29.82,10.0,SE,16.1,-,N/A,,Mostly Cloudy,130,2014-05-11 00:51:00
8:51 PM,79.0,60.1,52,29.83,10.0,SE,13.8,-,N/A,,Overcast,130,2014-05-11 01:51:00
9:51 PM,78.1,63.0,60,29.85,10.0,SE,13.8,23.0,N/A,,Overcast,140,2014-05-11 02:51:00
10:51 PM,77.0,64.0,64,29.86,10.0,South,6.9,-,N/A,,Overcast,170,2014-05-11 03:51:00
11:37 PM,68.0,57.2,68,29.93,10.0,NNW,23.0,40.3,N/A,Thunderstorm,Thunderstorm,330,2014-05-11 04:37:00
11:47 PM,66.2,60.8,83,29.99,2.0,NW,23.0,32.2,0.00,Rain-Thunderstorm,Light Thunderstorms and Rain,310,2014-05-11 04:47:00
11:51 PM,64.4,60.8,88,29.98,2.0,North,24.2,31.1,N/A,Rain-Thunderstorm,Heavy Thunderstorms and Rain,350,2014-05-11 04:51:00
11:55 PM,64.4,60.8,88,29.99,2.0,NNW,16.1,34.5,0.13,Rain-Thunderstorm,Heavy Thunderstorms and Rain,330,2014-05-11 04:55:00